Date String (YYYY-MM-DD hh:mm:ss) UTC,Instrument flags,absolute air pressure of the measurement (hPa),sample flow rate (lpm),inlet stack bypass flow (lpm),air temperature of the measurement (°C),ambient temperature measured by the external sensor (°C),aerosol sample conditioner tube jacket temperature (°C),OPC LED temperature (°C),internal box temperature (°C),relative humidity of the measurement (%),span deviation,mass concentration of particles derived from Lorenz-Mie calculation of OPC scattering (μg/m³),mass concentration of particles derived from Lorenz-Mie calculation of OPC scattering (μg/m³),mass concentration of particles derived from Lorenz-Mie calculation of OPC scattering (μg/m³)
DateTimeUTC,F1_M11,P_M11,Q1_M11,Q2_M11,T1_M11,T2_M11,T3_M11,T4_M11,T5_M11,U1_M11,ZSPAN_M11,X0_M11,X2_M11,X1_M11
2023-11-25 08:00:00,SystemResetWarning,0828.3,5.01,000.00,019.3,019.1,000.0,027.5,020.4,10.9,0000.0,0008.06,0005.33,0004.87
2023-11-25 08:01:00,SystemResetWarning,0828.3,5.01,000.00,019.3,018.9,000.0,027.5,020.3,10.9,0000.0,0007.99,0005.28,0004.83
2023-11-25 08:02:00,SystemResetWarning,0828.3,4.99,000.00,019.2,018.7,000.0,027.5,020.2,10.9,0000.0,0007.94,0005.26,0004.81
2023-11-25 08:03:00,SystemResetWarning,0828.3,4.99,000.00,019.2,018.6,000.0,027.5,020.1,10.9,0000.0,0007.97,0005.28,0004.81
2023-11-25 08:04:00,SystemResetWarning,0828.3,4.99,000.00,019.1,018.5,000.0,027.5,020.1,11.0,0000.0,0008.04,0005.29,0004.81
2023-11-25 08:05:00,SystemResetWarning,0828.3,5.01,000.00,019.1,018.4,000.0,027.5,020.1,11.0,0000.0,0008.01,0005.25,0004.80
2023-11-25 08:06:00,SystemResetWarning,0828.3,5.01,000.00,019.1,018.3,000.0,027.5,020.0,11.0,0000.0,0007.97,0005.23,0004.79
2023-11-25 08:07:00,SystemResetWarning,0828.3,5.01,000.00,019.0,018.2,000.0,027.5,020.0,11.0,0000.0,0007.87,0005.18,0004.76
2023-11-25 08:08:00,SystemResetWarning,0828.3,5.00,000.00,019.0,018.2,000.0,027.5,020.0,11.0,0000.0,0007.92,0005.13,0004.76
2023-11-25 08:09:00,SystemResetWarning,0828.3,4.99,000.00,019.0,018.2,000.0,027.4,020.2,11.0,0000.0,0007.90,0005.12,0004.75
2023-11-25 08:10:00,SystemResetWarning,0828.3,5.01,000.00,019.1,018.8,000.0,027.4,020.8,10.9,0000.0,0007.93,0005.12,0004.75
2023-11-25 08:11:00,SystemResetWarning,0828.3,4.99,000.00,019.3,019.4,000.0,027.5,021.1,10.9,0000.0,0007.92,0005.14,0004.74
2023-11-25 08:12:00,SystemResetWarning,0828.3,5.00,000.00,019.3,019.4,000.0,027.5,020.8,10.8,0000.0,0007.82,0005.10,0004.73
2023-11-25 08:13:00,SystemResetWarning,0828.3,4.99,000.00,019.3,019.2,000.0,027.5,020.5,10.8,0000.0,0007.87,0005.11,0004.73
2023-11-25 08:14:00,SystemResetWarning,0828.3,5.01,000.00,019.2,019.0,000.0,027.5,020.3,10.8,0000.0,0007.82,0005.09,0004.73
2023-11-25 08:15:00,SystemResetWarning,0828.3,5.00,000.00,019.2,018.8,000.0,027.5,020.2,10.8,0000.0,0007.79,0005.08,0004.71
2023-11-25 08:16:00,SystemResetWarning,0828.2,5.00,000.00,019.1,018.7,000.0,027.5,020.2,10.9,0000.0,0007.80,0005.07,0004.69
2023-11-25 08:17:00,SystemResetWarning,0828.3,5.01,000.00,019.1,018.6,000.0,027.5,020.1,10.9,0000.0,0007.76,0005.04,0004.66
2023-11-25 08:18:00,SystemResetWarning,0828.3,5.00,000.00,019.1,018.5,000.0,027.5,020.1,10.9,0000.0,0007.77,0005.02,0004.64
2023-11-25 08:19:00,SystemResetWarning,0828.3,4.99,000.00,019.0,018.4,000.0,027.5,020.1,10.9,0000.0,0007.55,0004.98,0004.61
2023-11-25 08:20:00,SystemResetWarning,0828.2,5.00,000.00,019.0,018.3,000.0,027.4,020.1,10.9,0000.0,0007.47,0004.96,0004.58
2023-11-25 08:21:00,SystemResetWarning,0828.2,5.00,000.00,019.0,018.3,000.0,027.4,020.0,10.9,0000.0,0007.43,0004.94,0004.57
2023-11-25 08:22:00,SystemResetWarning,0828.2,5.01,000.00,019.0,018.2,000.0,027.4,020.1,10.9,0000.0,0007.54,0004.92,0004.54
2023-11-25 08:23:00,SystemResetWarning,0828.2,5.01,000.00,019.0,018.3,000.0,027.4,020.3,10.9,0000.0,0007.56,0004.88,0004.51
2023-11-25 08:24:00,SystemResetWarning,0828.3,5.00,000.00,019.1,019.0,000.0,027.4,020.9,10.8,0000.0,0007.48,0004.84,0004.48
2023-11-25 08:25:00,SystemResetWarning,0828.3,5.00,000.00,019.3,019.5,000.0,027.4,021.1,10.7,0000.0,0007.45,0004.83,0004.47
2023-11-25 08:26:00,SystemResetWarning,0828.4,5.00,000.00,019.3,019.4,000.0,027.4,020.8,10.7,0000.0,0007.43,0004.81,0004.45
2023-11-25 08:27:00,SystemResetWarning,0828.4,4.99,000.00,019.3,019.3,000.0,027.5,020.6,10.7,0000.0,0007.35,0004.77,0004.44
2023-11-25 08:28:00,SystemResetWarning,0828.3,4.99,000.00,019.3,019.1,000.0,027.5,020.4,10.7,0000.0,0007.29,0004.76,0004.45
2023-11-25 08:29:00,SystemResetWarning,0828.3,5.01,000.00,019.2,018.9,000.0,027.5,020.4,10.7,0000.0,0007.35,0004.78,0004.46
2023-11-25 08:30:00,SystemResetWarning,0828.3,5.01,000.00,019.2,018.8,000.0,027.5,020.4,10.7,0000.0,0007.42,0004.80,0004.46
2023-11-25 08:31:00,SystemResetWarning,0828.3,5.00,000.00,019.2,018.7,000.0,027.5,020.3,10.7,0000.0,0007.45,0004.82,0004.47
2023-11-25 08:32:00,SystemResetWarning,0828.3,5.00,000.00,019.2,018.6,000.0,027.5,020.3,10.8,0000.0,0007.56,0004.82,0004.46
2023-11-25 08:33:00,SystemResetWarning,0828.3,5.00,000.00,019.2,018.5,000.0,027.5,020.3,10.8,0000.0,0007.66,0004.82,0004.46
2023-11-25 08:34:00,SystemResetWarning,0828.3,4.99,000.00,019.1,018.5,000.0,027.5,020.3,10.8,0000.0,0007.57,0004.82,0004.47
2023-11-25 08:35:00,SystemResetWarning,0828.3,5.00,000.00,019.1,018.4,000.0,027.5,020.3,10.8,0000.0,0007.59,0004.83,0004.48
2023-11-25 08:36:00,SystemResetWarning,0828.3,5.01,000.00,019.1,018.4,000.0,027.5,020.3,10.8,0000.0,0007.61,0004.84,0004.48
2023-11-25 08:37:00,SystemResetWarning,0828.3,5.01,000.00,019.1,018.3,000.0,027.4,020.3,10.8,0000.0,0007.49,0004.81,0004.47
2023-11-25 08:38:00,SystemResetWarning,0828.3,4.99,000.00,019.1,018.3,000.0,027.4,020.2,10.8,0000.0,0008.31,0004.81,0004.48
2023-11-25 08:39:00,SystemResetWarning,0828.3,4.99,000.00,019.1,018.2,000.0,027.4,020.3,10.8,0000.0,0008.57,0004.84,0004.48
2023-11-25 08:40:00,SystemResetWarning,0828.3,5.00,000.00,019.1,018.6,000.0,027.4,020.7,10.8,0000.0,0008.74,0004.83,0004.49
2023-11-25 08:41:00,SystemResetWarning,0828.4,5.02,000.00,019.3,019.3,000.0,027.4,021.2,10.7,0000.0,0008.71,0004.81,0004.51
2023-11-25 08:42:00,SystemResetWarning,0828.4,4.98,000.00,019.4,019.5,000.0,027.5,021.1,10.7,0000.0,0009.05,0004.82,0004.51
2023-11-25 08:43:00,SystemResetWarning,0828.3,4.99,000.00,019.4,019.4,000.0,027.5,020.8,10.7,0000.0,0009.03,0004.84,0004.53
2023-11-25 08:44:00,SystemResetWarning,0828.3,5.00,000.00,019.3,019.2,000.0,027.5,020.6,10.7,0000.0,0008.77,0004.83,0004.55
2023-11-25 08:45:00,SystemResetWarning,0828.3,5.00,000.00,019.3,019.0,000.0,027.5,020.4,10.7,0000.0,0008.81,0004.85,0004.57
2023-11-25 08:46:00,SystemResetWarning,0828.3,5.00,000.00,019.2,018.8,000.0,027.5,020.3,10.7,0000.0,0008.89,0004.87,0004.57
2023-11-25 08:47:00,SystemResetWarning,0828.3,5.00,000.00,019.2,018.7,000.0,027.5,020.2,10.7,0000.0,0008.90,0004.88,0004.58
2023-11-25 08:48:00,SystemResetWarning,0828.3,5.00,000.00,019.2,018.6,000.0,027.5,020.1,10.7,0000.0,0008.92,0004.90,0004.59
2023-11-25 08:49:00,SystemResetWarning,0828.3,5.00,000.00,019.1,018.5,000.0,027.5,020.1,10.8,0000.0,0008.27,0004.91,0004.60
2023-11-25 08:50:00,SystemResetWarning,0828.3,5.00,000.00,019.1,018.4,000.0,027.5,020.2,10.8,0000.0,0007.99,0004.90,0004.60
2023-11-25 08:51:00,SystemResetWarning,0828.4,5.00,000.00,019.1,018.4,000.0,027.5,020.2,10.8,0000.0,0007.73,0004.92,0004.60
2023-11-25 08:52:00,SystemResetWarning,0828.4,5.00,000.00,019.1,018.3,000.0,027.5,020.2,10.8,0000.0,0007.85,0004.94,0004.60
2023-11-25 08:53:00,SystemResetWarning,0828.4,5.00,000.00,019.1,018.3,000.0,027.5,020.2,10.8,0000.0,0007.78,0004.94,0004.60
2023-11-25 08:54:00,SystemResetWarning,0828.4,5.00,000.00,019.0,018.2,000.0,027.4,020.2,10.8,0000.0,0007.73,0004.94,0004.60
2023-11-25 08:55:00,SystemResetWarning,0828.4,4.98,000.00,019.0,018.2,000.0,027.4,020.2,10.8,0000.0,0007.86,0004.96,0004.61
2023-11-25 08:56:00,SystemResetWarning,0828.5,5.01,000.00,019.1,018.3,000.0,027.4,020.4,10.8,0000.0,0007.92,0004.97,0004.61
2023-11-25 08:57:00,SystemResetWarning,0828.5,5.01,000.00,019.2,018.9,000.0,027.4,020.9,10.7,0000.0,0007.94,0005.00,0004.62
2023-11-25 08:58:00,SystemResetWarning,0828.4,4.99,000.00,019.3,019.1,000.0,027.4,020.9,10.7,0000.0,0007.95,0005.02,0004.64
2023-11-25 08:59:00,SystemResetWarning,0828.4,5.00,000.00,019.3,019.0,000.0,027.5,020.6,10.7,0000.0,0008.53,0005.03,0004.66
